"Timestamp","TZ","WindDir_Mean (deg)","WindSpd_Mean (km/h)","WindSpd_Min (km/h)","WindSpd_Max (km/h)","Temp_Mean (deg)","RH_Mean (%)","MSLP_Mean (hPa)","Rain_Acc (mm)","Rain_Intensity (mm/h)","Hail_Acc (hits/cm2)","Hail_Intensity (hits/cm2hr)","Solar_Mean (W/m2)"
2018/03/21 00:00:00.004,n,133,2.88,0.36,5.4,23,71.5,1018.32,0,0,0,0,0.022621
2018/03/21 00:01:00.001,n,146,5.4,3.24,6.48,23.1,71.5,1018.32,0,0,0,0,0.022621
2018/03/21 00:02:00.000,n,151,5.04,3.96,5.76,23.1,71.5,1018.22,0,0,0,0,0.02697
2018/03/21 00:03:00.000,n,114,2.52,1.8,3.6,23.1,71.4,1018.32,0,0,0,0,0.025253
2018/03/21 00:04:00.000,n,159,6.48,5.76,7.56,23.1,71.5,1018.32,0,0,0,0,0.028725
2018/03/21 00:05:00.005,n,126,5.04,4.32,5.4,23.1,71.5,1018.32,0,0,0,0,0.021744
2018/03/21 00:06:00.002,n,207,3.24,2.52,3.6,23.1,71.5,1018.32,0,0,0,0,0.026131
2018/03/21 00:07:00.000,n,198,5.76,5.4,6.48,23.1,71.6,1018.32,0,0,0,0,0.024376
2018/03/21 00:08:00.013,n,147,3.96,3.24,4.68,23.1,71.6,1018.32,0,0,0,0,0.023499
2018/03/21 00:09:00.010,n,176,3.6,3.24,3.6,23.1,71.6,1018.32,0,0,0,0,0.022621
2018/03/21 00:10:00.000,n,192,3.6,3.24,3.6,23.1,71.6,1018.32,0,0,0,0,0.024376
2018/03/21 00:11:00.000,n,120,5.04,3.96,5.76,23.1,71.6,1018.32,0,0,0,0,0.022621
2018/03/21 00:12:00.001,n,253,7.2,7.2,7.56,23.1,71.6,1018.32,0,0,0,0,0.020027
2018/03/21 00:13:00.000,n,245,5.04,4.68,5.76,23.1,72.1,1018.32,0,0,0,0,0.022621
2018/03/21 00:14:00.000,n,250,6.12,5.04,6.84,23.1,72.1,1018.32,0,0,0,0,0.024376
2018/03/21 00:15:00.008,n,247,4.68,3.96,5.04,23,72.4,1018.32,0,0,0,0,0.025215
2018/03/21 00:16:00.003,n,239,5.4,5.04,5.76,22.9,72.6,1018.22,0,0,0,0,0.028725
2018/03/21 00:17:00.001,n,255,6.48,5.4,7.2,22.9,72.9,1018.22,0,0,0,0,0.028725
2018/03/21 00:18:00.014,n,258,7.2,5.76,9,22.8,73.7,1018.22,0,0,0,0,0.031319
2018/03/21 00:19:00.000,n,266,6.48,5.4,7.56,22.7,73.7,1018.22,0,0,0,0,0.027847
2018/03/21 00:20:00.000,n,252,5.04,4.68,5.76,22.6,73.9,1018.22,0,0,0,0,0.02697
2018/03/21 00:21:00.000,n,245,4.68,4.32,5.04,22.6,74.4,1018.22,0,0,0,0,0.028725
2018/03/21 00:22:00.000,n,261,5.4,5.4,5.76,22.5,74.3,1018.22,0,0,0,0,0.029564
2018/03/21 00:23:00.000,n,264,6.48,6.12,7.2,22.4,74.3,1018.22,0,0,0,0,0.02697
2018/03/21 00:24:00.007,n,266,7.2,6.12,7.92,22.4,74.5,1018.22,0,0,0,0,0.026093
2018/03/21 00:25:00.005,n,274,7.56,5.76,9,22.3,75,1018.22,0,0,0,0,0.031319
2018/03/21 00:26:00.003,n,238,4.68,3.6,5.04,22.3,75.1,1018.22,0,0,0,0,0.030441
2018/03/21 00:27:00.000,n,249,7.2,6.84,7.92,22.2,75.3,1018.22,0,0,0,0,0.02697
2018/03/21 00:28:00.000,n,247,4.32,3.24,5.04,22.2,75.9,1018.22,0,0,0,0,0.024338
2018/03/21 00:29:00.000,n,232,3.96,3.6,4.68,22.2,75.5,1018.12,0,0,0,0,0.022621
2018/03/21 00:30:00.000,n,243,3.96,3.6,5.04,22.1,75.7,1018.12,0,0,0,0,0.025215
2018/03/21 00:31:00.005,n,237,5.04,5.04,5.4,22.1,75.8,1018.12,0,0,0,0,0.022621
2018/03/21 00:32:00.002,n,236,5.76,5.04,6.12,22.1,76,1018.22,0,0,0,0,0.030441
2018/03/21 00:33:00.000,n,209,1.8,1.8,2.52,22.1,76.3,1018.22,0,0,0,0,0.022621
2018/03/21 00:34:00.012,n,292,3.24,2.88,3.24,22,76,1018.12,0,0,0,0,0.030441
2018/03/21 00:35:00.009,n,237,5.04,3.96,6.12,22,75.9,1018.12,0,0,0,0,0.022621
2018/03/21 00:36:00.006,n,231,3.24,2.16,4.32,22,76,1018.12,0,0,0,0,0.028725
2018/03/21 00:37:00.000,n,250,2.52,0.72,3.96,21.9,76.3,1018.12,0,0,0,0,0.019989
2018/03/21 00:38:00.000,n,243,3.6,2.52,3.96,21.9,76.4,1018.12,0,0,0,0,0.01915
2018/03/21 00:39:00.000,n,206,2.52,0.36,4.32,21.9,76.8,1018.12,0,0,0,0,0.019989
2018/03/21 00:40:00.000,n,215,2.88,2.52,3.6,21.9,76.7,1018.12,0,0,0,0,0.01915
2018/03/21 00:41:00.007,n,243,5.04,4.32,6.12,21.9,76.5,1018.02,0,0,0,0,0.026093
2018/03/21 00:42:00.004,n,208,3.96,1.44,7.56,21.9,76.5,1018.02,0,0,0,0,0.033951
2018/03/21 00:43:00.002,n,245,5.04,3.96,5.76,21.9,76.8,1018.02,0,0,0,0,0.029602
2018/03/21 00:44:00.001,n,237,2.88,2.52,3.96,21.9,76.9,1018.02,0,0,0,0,0.030441
2018/03/21 00:45:00.014,n,244,5.76,5.4,6.12,21.9,76.8,1018.02,0,0,0,0,0.028725
2018/03/21 00:46:00.000,n,225,6.12,4.68,7.2,21.9,77,1018.02,0,0,0,0,0.029602
2018/03/21 00:47:00.000,n,145,1.8,1.44,2.52,21.9,77.1,1018.02,0,0,0,0,0.036545
2018/03/21 00:48:00.005,n,259,4.32,3.96,4.68,21.9,76.9,1018.02,0,0,0,0,0.036545
2018/03/21 00:49:00.002,n,257,1.08,1.08,1.44,21.9,76.9,1018.02,0,0,0,0,0.029602
2018/03/21 00:50:00.000,n,245,1.8,0.72,2.52,21.8,77.2,1018.02,0,0,0,0,0.033951
2018/03/21 00:51:00.000,n,231,2.16,1.8,2.52,21.8,77.1,1017.92,0,0,0,0,0.026093
2018/03/21 00:52:00.011,n,215,1.8,1.08,2.52,21.8,77.4,1017.92,0,0,0,0,0.026093
2018/03/21 00:53:00.008,n,187,2.16,0.72,4.32,21.8,77.6,1017.92,0,0,0,0,0.033951
2018/03/21 00:54:00.005,n,197,5.4,4.32,6.48,21.9,77.2,1017.92,0,0,0,0,0.031319
2018/03/21 00:55:00.002,n,254,2.88,1.44,4.32,21.8,77.4,1017.92,0,0,0,0,0.028725
2018/03/21 00:56:00.000,n,244,1.8,1.44,2.16,21.8,77.6,1017.82,0,0,0,0,0.026093
2018/03/21 00:57:00.000,n,226,6.12,4.68,7.56,21.8,77.2,1017.82,0,0,0,0,0.031319
2018/03/21 00:58:00.000,n,225,3.24,1.8,4.32,21.8,77.2,1017.82,0,0,0,0,0.032196
2018/03/21 00:59:00.007,n,252,3.24,2.52,3.6,21.8,77.4,1017.72,0,0,0,0,0.029602
2018/03/21 01:00:00.004,n,224,3.24,3.24,3.6,21.8,77.2,1017.72,0,0,0,0,0.031319
2018/03/21 01:01:00.002,n,196,3.24,2.16,3.96,21.8,77.8,1017.72,0,0,0,0,0.032196
2018/03/21 01:02:00.000,n,203,2.52,2.16,2.88,21.8,77.7,1017.72,0,0,0,0,0.029602
2018/03/21 01:03:00.013,n,299,7.2,5.4,9,21.8,77.4,1017.72,0,0,0,0,0.028725
2018/03/21 01:04:00.000,n,174,9,7.56,10.8,21.8,77.3,1017.72,0,0,0,0,0.025253
2018/03/21 01:05:00.000,n,249,2.88,2.16,3.6,21.8,77.4,1017.72,0,0,0,0,0.033951
2018/03/21 01:06:00.004,n,176,6.12,5.4,6.84,21.8,77.3,1017.72,0,0,0,0,0.026093
2018/03/21 01:07:00.001,n,147,1.8,0.72,2.52,21.8,77.2,1017.72,0,0,0,0,0.026093
2018/03/21 01:08:00.000,n,165,3.24,2.88,3.6,21.8,77.2,1017.72,0,0,0,0,0.024376
2018/03/21 01:09:00.000,n,217,3.24,2.88,3.6,21.8,77.1,1017.72,0,0,0,0,0.024376
2018/03/21 01:10:00.011,n,152,3.24,2.16,3.96,21.8,77.2,1017.72,0,0,0,0,0.027885
2018/03/21 01:11:00.008,n,167,7.2,5.04,9.72,21.8,77,1017.72,0,0,0,0,0.024376
2018/03/21 01:12:00.005,n,153,2.16,1.08,3.6,21.8,77,1017.72,0,0,0,0,0.021744
2018/03/21 01:13:00.001,n,163,8.28,7.2,9.36,21.9,77,1017.72,0,0,0,0,0.024376
2018/03/21 01:14:00.000,n,167,2.88,2.16,3.24,21.9,77,1017.72,0,0,0,0,0.018272
2018/03/21 01:15:00.000,n,146,0.72,0.36,1.08,21.9,76.9,1017.72,0,0,0,0,0.027885
2018/03/21 01:16:00.000,n,153,0.72,0,1.8,21.9,77.1,1017.72,0,0,0,0,0.026093
2018/03/21 01:17:00.007,n,275,3.96,2.52,5.04,21.9,77,1017.72,0,0,0,0,0.020866
2018/03/21 01:18:00.003,n,185,6.12,5.4,6.84,21.9,77,1017.62,0,0,0,0,0.022659
2018/03/21 01:19:00.000,n,195,1.08,0.36,1.8,21.9,77.1,1017.72,0,0,0,0,0.022659
2018/03/21 01:20:00.000,n,169,6.48,6.12,6.84,21.9,77.1,1017.62,0,0,0,0,0.025253
2018/03/21 01:21:00.012,n,120,2.16,1.8,2.16,21.9,77.1,1017.62,0,0,0,0,0.021744
2018/03/21 01:22:00.000,n,159,1.08,0,2.16,21.9,77.2,1017.62,0,0,0,0,0.020027
2018/03/21 01:23:00.000,n,164,1.08,0.36,2.52,21.9,77,1017.72,0,0,0,0,0.022659
2018/03/21 01:24:00.003,n,234,2.16,1.44,2.88,21.9,77.1,1017.72,0,0,0,0,0.021744
2018/03/21 01:25:00.000,n,264,3.24,2.88,3.6,21.9,77,1017.72,0,0,0,0,0.020027
2018/03/21 01:26:00.000,n,233,2.52,1.8,2.88,21.9,77,1017.72,0,0,0,0,0.020027
2018/03/21 01:27:00.000,n,232,2.16,1.8,3.24,22,77,1017.72,0,0,0,0,0.027847
2018/03/21 01:28:00.005,n,246,1.8,1.44,2.52,22,77.1,1017.62,0,0,0,0,0.033951
2018/03/21 01:29:00.002,n,287,1.08,0.36,1.8,22,77.3,1017.62,0,0,0,0,0.031319
2018/03/21 01:30:00.015,n,66,1.8,1.8,1.8,22,77.2,1017.62,0,0,0,0,0.035706
2018/03/21 01:31:00.000,n,168,4.32,2.52,5.76,22,76.9,1017.62,0,0,0,0,0.033951
2018/03/21 01:32:00.000,n,161,5.4,4.68,6.48,22,76.8,1017.62,0,0,0,0,0.032196
2018/03/21 01:33:00.000,n,138,2.52,2.16,2.88,22,76.8,1017.62,0,0,0,0,0.030479
2018/03/21 01:34:00.003,n,178,1.8,1.44,2.16,22,76.8,1017.62,0,0,0,0,0.032196
2018/03/21 01:35:00.002,n,199,2.52,1.44,3.24,22.1,76.8,1017.72,0,0,0,0,0.032196
2018/03/21 01:36:00.000,n,85,1.44,1.08,2.52,22.1,76.7,1017.72,0,0,0,0,0.030479
2018/03/21 01:37:00.000,n,216,0.72,0.36,1.08,22.1,76.7,1017.72,0,0,0,0,0.033073
2018/03/21 01:38:00.011,n,277,2.52,1.8,2.52,22.1,76.8,1017.72,0,0,0,0,0.036545
2018/03/21 01:39:00.008,n,250,2.88,2.16,3.6,22.1,76.6,1017.72,0,0,0,0,0.031319
2018/03/21 01:40:00.000,n,303,1.8,0.72,2.16,22.1,76.7,1017.72,0,0,0,0,0.035706
2018/03/21 01:41:00.000,n,330,1.8,1.8,2.52,22.1,76.6,1017.72,0,0,0,0,0.037422
2018/03/21 01:42:00.000,n,240,2.52,2.16,3.24,22.1,76.7,1017.62,0,0,0,0,0.039177
2018/03/21 01:43:00.005,n,121,0.72,0.36,0.72,22.1,76.6,1017.62,0,0,0,0,0.034828
2018/03/21 01:44:00.000,n,305,1.8,1.44,1.8,22.1,77.3,1017.62,0,0,0,0,0.035706
2018/03/21 01:45:00.000,n,248,2.88,1.8,4.32,22.1,77.3,1017.62,0,0,0,0,0.036545
2018/03/21 01:46:00.005,n,223,0.72,0.72,1.44,22.2,77.5,1017.52,0,0,0,0,0.037422
2018/03/21 01:47:00.011,n,190,2.16,0.36,4.68,22.2,77.2,1017.52,0,0,0,0,0.036545
2018/03/21 01:48:00.016,n,233,3.6,3.24,3.6,22.1,76.7,1017.52,0,0,0,0,0.035706
2018/03/21 01:49:00.000,n,189,2.52,2.16,2.88,22.1,76.8,1017.62,0,0,0,0,0.037422
2018/03/21 01:50:00.000,n,233,2.88,2.88,3.24,22,76.8,1017.62,0,0,0,0,0.036545
2018/03/21 01:51:00.000,n,98,0.72,0.72,1.44,22,77.5,1017.62,0,0,0,0,0.037422
2018/03/21 01:52:00.004,n,52,5.76,5.76,6.12,22,77.7,1017.62,0,0,0,0,0.0383
2018/03/21 01:53:00.000,n,38,5.4,4.68,6.12,22,77.5,1017.62,0,0,0,0,0.04612
2018/03/21 01:54:00.000,n,42,7.2,4.68,8.64,22,77.8,1017.62,0,0,0,0,0.0383
2018/03/21 01:55:00.005,n,67,3.96,3.24,3.96,22,77.6,1017.62,0,0,0,0,0.040054
2018/03/21 01:56:00.011,n,203,0.72,0,1.44,22,77.9,1017.52,0,0,0,0,0.039177
2018/03/21 01:57:00.016,n,235,0.36,0.36,0.72,22,77.9,1017.52,0,0,0,0,0.0383
2018/03/21 01:58:00.000,n,143,2.88,2.88,3.24,22,78,1017.62,0,0,0,0,0.0383
2018/03/21 01:59:00.000,n,43,5.4,4.68,5.76,22,78.5,1017.62,0,0,0,0,0.039177
2018/03/21 02:00:00.000,n,50,3.6,3.24,4.32,22,78.8,1017.52,0,0,0,0,0.04612
2018/03/21 02:01:00.005,n,44,4.68,4.32,4.68,22,79.2,1017.42,0,0,0,0,0.042648
2018/03/21 02:02:00.000,n,14,4.32,3.24,5.04,22,79.4,1017.42,0,0,0,0,0.035706
2018/03/21 02:03:00.000,n,32,3.24,2.52,3.6,22,79.8,1017.52,0,0,0,0,0.039177
2018/03/21 02:04:00.006,n,113,5.4,4.68,6.12,22,79.8,1017.52,0,0,0,0,0.0383
2018/03/21 02:05:00.010,n,66,6.48,6.12,7.2,22,80,1017.52,0,0,0,0,0.039177
2018/03/21 02:06:00.016,n,64,5.04,4.32,5.4,21.9,80.3,1017.52,0,0,0,0,0.041771
2018/03/21 02:07:00.000,n,20,9.36,9,9.72,21.9,80.7,1017.52,0,0,0,0,0.040932
2018/03/21 02:08:00.000,n,16,6.84,6.48,7.2,21.9,81.1,1017.42,0,0,0,0,0.040932
2018/03/21 02:09:00.000,n,2,3.6,2.16,5.04,21.8,81.5,1017.42,0,0,0,0,0.041771
2018/03/21 02:10:00.005,n,32,4.32,2.16,5.4,21.8,81.6,1017.42,0,0,0,0,0.043526
2018/03/21 02:11:00.000,n,24,5.04,4.32,6.12,21.8,81.8,1017.42,0,0,0,0,0.042648
2018/03/21 02:12:00.000,n,24,5.4,5.04,6.12,21.8,81.9,1017.42,0,0,0,0,0.039177
2018/03/21 02:13:00.005,n,24,5.76,5.4,5.76,21.8,82.1,1017.42,0,0,0,0,0.040054
2018/03/21 02:14:00.011,n,39,5.4,4.68,7.2,21.7,82.4,1017.52,0,0,0,0,0.040054
2018/03/21 02:15:00.016,n,33,5.04,2.52,6.12,21.7,82.7,1017.52,0,0,0,0,0.0383
2018/03/21 02:16:00.000,n,32,7.92,7.2,8.64,21.7,82.8,1017.52,0,0,0,0,0.039177
2018/03/21 02:17:00.000,n,8,5.04,4.68,5.4,21.7,83.1,1017.52,0.01,0.4,0,0,0.040932
2018/03/21 02:18:00.001,n,7,5.76,3.6,7.92,21.7,83.2,1017.42,0.01,0,0,0,0.0383
2018/03/21 02:19:00.007,n,19,5.4,5.04,5.4,21.7,83.3,1017.42,0.01,0,0,0,0.037422
2018/03/21 02:20:00.000,n,9,5.4,4.68,5.76,21.7,83.5,1017.42,0.01,0,0,0,0.039177
2018/03/21 02:21:00.001,n,3,4.68,4.32,5.76,21.7,83.7,1017.42,0.01,0,0,0,0.039177
2018/03/21 02:22:00.007,n,34,3.24,2.88,3.6,21.6,84.1,1017.42,0.01,0,0,0,0.039177
2018/03/21 02:23:00.013,n,7,3.24,2.52,3.96,21.7,84.1,1017.32,0.01,0,0,0,0.042648
2018/03/21 02:24:00.002,n,43,2.52,1.08,3.6,21.7,84.5,1017.42,0.01,0,0,0,0.039177
2018/03/21 02:25:00.000,n,56,9.72,8.64,10.440002,21.7,84.6,1017.42,0.01,0,0,0,0.037422
2018/03/21 02:26:00.000,n,53,11.88,10.08,12.6,21.7,84.6,1017.62,0.01,0,0,0,0.037422
2018/03/21 02:27:00.004,n,30,12.96,11.16,14.4,21.7,85.1,1017.52,0.26,12.7,0,0,0.040054
2018/03/21 02:28:00.000,n,39,6.84,5.76,7.92,21.6,85.6,1017.52,0.36,7.4,0,0,0.036545
2018/03/21 02:29:00.008,n,21,9.36,7.56,11.52,21.6,86.1,1017.52,0.41,3.2,0,0,0.037422
2018/03/21 02:30:00.005,n,21,5.76,3.6,7.2,21.6,86.6,1017.52,0.47,3.7,0,0,0.040054
2018/03/21 02:31:00.003,n,43,8.64,7.92,9.72,21.6,86.6,1017.52,0.49,1.2,0,0,0.040054
2018/03/21 02:32:00.001,n,57,6.48,5.4,7.56,21.5,87,1017.52,0.58,4.7,0,0,0.040054
2018/03/21 02:33:00.016,n,120,8.64,7.92,10.08,21.5,87.2,1017.62,0.63,3.7,0,0,0.037422
2018/03/21 02:34:00.000,n,126,5.76,5.04,7.2,21.5,87.3,1017.52,0.65,1,0,0,0.042648
2018/03/21 02:35:00.000,n,164,2.88,1.08,3.96,21.5,87.5,1017.52,0.66,0.8,0,0,0.039177
2018/03/21 02:36:00.000,n,64,2.52,0.72,6.12,21.5,87.6,1017.32,0.95,17.4,0,0,0.036545
2018/03/21 02:37:00.000,n,61,5.76,4.68,8.28,21.5,88.2,1017.32,0.99,2.4,0,0,0.033073
2018/03/21 02:38:00.000,n,103,8.28,7.2,9.72,21.4,87.5,1017.32,1,0.4,0,0,0.035706
2018/03/21 02:39:00.011,n,91,9.72,8.28,11.52,21.4,87.8,1017.32,1,0.3,0,0,0.034828
2018/03/21 02:40:00.010,n,93,7.92,7.56,9,21.3,87.9,1017.42,1.04,2.1,0,0,0.034828
2018/03/21 02:41:00.008,n,99,9,6.48,11.52,21.3,88.4,1017.42,1.05,0.8,0,0,0.034828
2018/03/21 02:42:00.006,n,90,8.64,5.76,10.08,21.3,88.3,1017.42,1.07,1,0,0,0.036545
2018/03/21 02:43:00.000,n,106,12.96,10.8,16.919998,21.3,88.3,1017.52,1.16,3.5,0,0,0.034828
2018/03/21 02:44:00.003,n,81,12.96,11.52,14.4,21.3,88.2,1017.52,1.54,20.3,0,0,0.034828
2018/03/21 02:45:00.000,n,99,12.6,8.28,15.48,21.3,88.4,1017.42,1.62,8.6,0,0,0.034828
2018/03/21 02:46:00.000,n,96,16.2,13.68,19.44,21.2,88.5,1017.32,1.65,2.4,0,0,0.033951
2018/03/21 02:47:00.005,n,65,5.4,4.68,6.84,21.2,88.7,1017.32,1.67,1.2,0,0,0.032196
2018/03/21 02:48:00.011,n,144,5.04,1.8,7.2,21.2,88.7,1017.32,1.68,0.6,0,0,0.030479
2018/03/21 02:49:00.001,n,114,7.2,5.76,7.92,21.2,88.8,1017.32,1.68,0,0,0,0.033951
2018/03/21 02:50:00.006,n,116,9.72,7.56,14.4,21.2,88.8,1017.32,1.68,0,0,0,0.028763
2018/03/21 02:51:00.012,n,101,6.48,6.12,6.84,21.2,88.7,1017.32,1.68,0,0,0,0.027847
2018/03/21 02:52:00.001,n,134,12.96,11.16,16.919998,21.2,88.8,1017.22,1.68,0,0,0,0.027847
2018/03/21 02:53:00.000,n,110,8.28,7.56,9.36,21.2,88.7,1017.22,1.68,0.1,0,0,0.028763
2018/03/21 02:54:00.000,n,146,8.28,6.84,11.16,21.2,88.9,1017.22,1.68,0,0,0,0.027847
2018/03/21 02:55:00.003,n,149,2.88,2.16,3.96,21.2,89,1017.22,1.68,0,0,0,0.029602
2018/03/21 02:56:00.008,n,119,2.52,1.44,3.24,21.3,89.1,1017.22,1.68,0,0,0,0.031319
2018/03/21 02:57:00.000,n,134,9.72,9,10.8,21.3,88.7,1017.12,1.68,0,0,0,0.02697
2018/03/21 02:58:00.003,n,134,7.92,7.2,8.28,21.3,89,1017.12,1.68,0,0,0,0.027847
2018/03/21 02:59:00.009,n,166,4.68,3.24,5.76,21.3,88.9,1017.12,1.68,0,0,0,0.026131
2018/03/21 03:00:00.014,n,147,8.28,2.88,10.440002,21.3,88.9,1017.12,1.68,0,0,0,0.027847
2018/03/21 03:01:00.000,n,182,9,7.2,9.72,21.3,88.7,1017.02,1.68,0,0,0,0.027847
2018/03/21 03:02:00.000,n,141,2.16,1.08,3.96,21.3,88.5,1017.12,1.68,0,0,0,0.026131
2018/03/21 03:03:00.000,n,159,6.12,5.76,6.84,21.2,88.5,1017.02,1.68,0,0,0,0.026131
2018/03/21 03:04:00.005,n,164,9,7.56,9.72,21.2,88.5,1017.02,1.68,0,0,0,0.028763
2018/03/21 03:05:00.000,n,145,9.72,8.28,10.8,21.2,88.4,1017.02,1.68,0,0,0,0.025253
2018/03/21 03:06:00.000,n,175,7.56,6.84,8.28,21.2,88.3,1017.02,1.68,0,0,0,0.025253
2018/03/21 03:07:00.005,n,196,3.6,2.88,3.96,21.2,88.6,1017.02,1.68,0,0,0,0.024376
2018/03/21 03:08:00.011,n,157,4.32,3.96,5.4,21.2,88.5,1017.02,1.68,0,0,0,0.027847
2018/03/21 03:09:00.017,n,156,7.56,6.84,8.28,21.3,88.3,1017.12,1.68,0,0,0,0.024376
2018/03/21 03:10:00.000,n,138,5.76,5.04,6.12,21.3,88.4,1017.12,1.68,0,0,0,0.025253
2018/03/21 03:11:00.000,n,117,3.96,2.88,6.12,21.3,88.3,1017.12,1.68,0,0,0,0.023499
2018/03/21 03:12:00.002,n,149,8.64,7.2,9.72,21.3,88.2,1017.12,1.68,0,0,0,0.021744
2018/03/21 03:13:00.000,n,156,8.28,7.56,9.36,21.3,88.2,1017.12,1.68,0,0,0,0.025253
2018/03/21 03:14:00.000,n,164,2.16,1.08,3.24,21.3,87.8,1017.12,1.68,0,0,0,0.022621
2018/03/21 03:15:00.003,n,151,9.36,7.2,11.16,21.2,87.9,1017.12,1.68,0,0,0,0.020905
2018/03/21 03:16:00.009,n,172,9,7.56,11.52,21.3,87.9,1017.12,1.68,0,0,0,0.020905
2018/03/21 03:17:00.000,n,178,7.2,6.12,7.92,21.3,87.9,1017.12,1.68,0,0,0,0.024376
2018/03/21 03:18:00.004,n,152,11.52,9.72,13.32,21.3,87.5,1017.12,1.68,0,0,0,0.020905
2018/03/21 03:19:00.000,n,170,5.76,4.68,7.56,21.3,87.8,1017.12,1.68,0,0,0,0.025253
2018/03/21 03:20:00.000,n,166,10.8,7.56,12.6,21.3,87.4,1017.12,1.68,0,0,0,0.018272
2018/03/21 03:21:00.005,n,160,6.12,5.04,6.84,21.3,87.4,1017.12,1.68,0,0,0,0.024338
2018/03/21 03:22:00.007,n,146,2.52,1.08,5.04,21.3,87.2,1017.12,1.68,0,0,0,0.031319
2018/03/21 03:23:00.000,n,157,6.84,6.12,7.2,21.3,87.3,1017.12,1.68,0,0,0,0.026093
2018/03/21 03:24:00.001,n,157,6.12,3.6,7.92,21.3,87.2,1017.12,1.68,0,0,0,0.025215
2018/03/21 03:25:00.006,n,191,6.84,5.4,8.28,21.3,87.1,1017.12,1.68,0,0,0,0.028725
2018/03/21 03:26:00.012,n,166,7.2,6.84,7.92,21.3,87.1,1017.12,1.68,0,0,0,0.026093
2018/03/21 03:27:00.001,n,206,4.68,3.96,5.04,21.3,87.4,1017.02,1.68,0,0,0,0.02697
2018/03/21 03:28:00.000,n,147,10.8,10.440002,11.52,21.3,87.1,1017.02,1.68,0,0,0,0.031319
2018/03/21 03:29:00.000,n,160,5.4,4.68,6.48,21.3,87,1017.02,1.68,0,0,0,0.027847
2018/03/21 03:30:00.002,n,154,4.68,3.96,5.4,21.3,87,1017.02,1.68,0,0,0,0.027847
2018/03/21 03:31:00.000,n,143,5.04,4.32,5.76,21.3,87.1,1017.02,1.68,0,0,0,0.027847
2018/03/21 03:32:00.000,n,152,8.64,7.56,9,21.3,86.9,1017.02,1.68,0,0,0,0.029564
2018/03/21 03:33:00.002,n,165,6.48,6.12,7.2,21.3,86.9,1016.92,1.68,0,0,0,0.02697
2018/03/21 03:34:00.007,n,181,8.28,6.84,9.72,21.3,87,1016.92,1.68,0,0,0,0.026093
2018/03/21 03:35:00.013,n,107,8.28,7.56,9.72,21.3,86.9,1016.92,1.68,0,0,0,0.023499
2018/03/21 03:36:00.002,n,159,6.12,5.4,6.48,21.3,87.1,1016.92,1.68,0,0,0,0.027847
2018/03/21 03:37:00.000,n,141,5.04,1.08,6.48,21.3,87,1016.92,1.68,0,0,0,0.032196
2018/03/21 03:38:00.000,n,167,7.56,7.56,7.92,21.3,87,1016.92,1.68,0,0,0,0.02697
2018/03/21 03:39:00.002,n,165,5.76,5.04,6.84,21.3,87,1016.92,1.68,0,0,0,0.028725
2018/03/21 03:40:00.000,n,175,8.64,7.56,10.440002,21.3,87,1016.92,1.68,0,0,0,0.029564
2018/03/21 03:41:00.000,n,166,8.28,7.2,9.72,21.3,87,1016.92,1.68,0,0,0,0.026093
2018/03/21 03:42:00.003,n,183,5.4,5.04,5.4,21.3,87,1016.92,1.68,0,0,0,0.027847
2018/03/21 03:43:00.009,n,195,5.4,4.32,6.48,21.3,87,1017.02,1.68,0,0,0,0.033073
2018/03/21 03:44:00.000,n,156,3.96,3.96,4.32,21.3,87.2,1017.02,1.68,0,0,0,0.025215
2018/03/21 03:45:00.004,n,160,7.92,7.2,9,21.3,87.1,1017.02,1.68,0,0,0,0.026093
2018/03/21 03:46:00.000,n,179,7.2,6.12,7.56,21.3,87.1,1017.02,1.68,0,0,0,0.02697
2018/03/21 03:47:00.000,n,195,8.64,7.56,9.72,21.3,87.1,1017.02,1.68,0,0,0,0.031319
2018/03/21 03:48:00.004,n,167,7.92,6.48,9,21.4,87.1,1017.02,1.68,0,0,0,0.029564
2018/03/21 03:49:00.000,n,142,5.4,2.88,6.48,21.4,87.2,1017.02,1.68,0,0,0,0.02697
2018/03/21 03:50:00.000,n,179,7.56,7.2,7.92,21.4,87.2,1017.02,1.68,0,0,0,0.030441
2018/03/21 03:51:00.006,n,181,8.64,7.92,9.36,21.4,87,1017.02,1.68,0,0,0,0.026093
2018/03/21 03:52:00.011,n,198,6.48,5.04,8.28,21.4,87,1017.02,1.68,0,0,0,0.023499
2018/03/21 03:53:00.001,n,162,11.52,10.08,11.88,21.4,87,1017.02,1.68,0,0,0,0.027847
2018/03/21 03:54:00.006,n,181,11.52,10.440002,12.6,21.4,86.8,1017.02,1.68,0,0,0,0.029564
2018/03/21 03:55:00.000,n,133,8.64,7.2,9.72,21.4,87.1,1017.02,1.68,0,0,0,0.030441
2018/03/21 03:56:00.000,n,173,11.16,8.64,11.88,21.4,87.1,1017.02,1.68,0,0,0,0.029564
2018/03/21 03:57:00.000,n,165,8.28,7.56,10.08,21.4,87.1,1017.02,1.68,0,0,0,0.030441
2018/03/21 03:58:00.000,n,164,8.64,6.84,9,21.4,87.1,1017.02,1.68,0,0,0,0.02697
2018/03/21 03:59:00.001,n,145,5.4,2.16,6.48,21.4,87.1,1017.02,1.68,0,0,0,0.024338
2018/03/21 04:00:00.007,n,185,6.48,5.04,6.84,21.4,87.2,1017.02,1.68,0,0,0,0.030441
2018/03/21 04:01:00.000,n,139,11.52,8.64,13.32,21.4,86.8,1017.02,1.68,0,0,0,0.022621
2018/03/21 04:02:00.002,n,161,10.8,10.08,12.96,21.4,86.9,1017.02,1.68,0,0,0,0.023499
2018/03/21 04:03:00.007,n,147,9.36,9,10.08,21.4,87,1017.12,1.68,0,0,0,0.024338
2018/03/21 04:04:00.000,n,149,6.84,4.68,8.28,21.4,87,1017.12,1.68,0,0,0,0.024338
2018/03/21 04:05:00.003,n,135,3.6,2.88,4.32,21.4,87,1017.12,1.68,0,0,0,0.030441
2018/03/21 04:06:00.000,n,137,7.2,6.84,8.64,21.4,87,1017.12,1.68,0,0,0,0.029564
2018/03/21 04:07:00.000,n,97,5.04,2.88,6.48,21.4,87.3,1017.22,1.68,0,0,0,0.026093
2018/03/21 04:08:00.003,n,111,9.36,8.28,10.440002,21.4,87.3,1017.32,2.13,26.1,0,0,0.024338
2018/03/21 04:09:00.001,n,98,3.6,2.88,3.96,21.4,87.5,1017.22,2.35,13.6,0,0,0.033073
2018/03/21 04:10:00.000,n,147,10.440002,9.36,11.16,21.4,87.4,1017.12,2.45,6.1,0,0,0.024338
2018/03/21 04:11:00.005,n,65,9.72,8.64,10.440002,21.4,87.6,1017.12,2.48,3,0,0,0.027847
2018/03/21 04:12:00.012,n,168,9,6.12,10.8,21.4,87.6,1017.12,2.49,1.1,0,0,0.027847
2018/03/21 04:13:00.001,n,112,6.48,5.04,7.56,21.4,87.7,1017.12,2.49,0.1,0,0,0.033073
2018/03/21 04:14:00.000,n,141,11.52,7.56,13.68,21.4,87.6,1017.12,2.52,2,0,0,0.02697
2018/03/21 04:15:00.000,n,168,4.68,3.96,5.4,21.3,87.5,1017.12,2.54,0.4,0,0,0.027847
2018/03/21 04:16:00.004,n,137,9.72,8.28,10.440002,21.3,87.7,1017.12,2.56,1.6,0,0,0.027847
2018/03/21 04:17:00.000,n,142,5.04,3.96,5.76,21.3,87.9,1017.12,2.65,4.6,0,0,0.032196
2018/03/21 04:18:00.000,n,134,1.08,0.72,2.16,21.3,87.8,1017.12,2.73,5.7,0,0,0.035667
2018/03/21 04:19:00.005,n,158,7.56,3.96,9.36,21.2,88.1,1017.12,2.74,0.6,0,0,0.028725
2018/03/21 04:20:00.012,n,134,4.32,3.24,5.04,21.2,87.8,1017.02,2.74,0,0,0,0.027847
2018/03/21 04:21:00.002,n,112,19.08,15.48,23.759998,21.2,87.8,1017.02,2.75,0.1,0,0,0.030441
2018/03/21 04:22:00.000,n,143,10.8,9.36,12.24,21.2,88,1017.02,2.75,0,0,0,0.027847
2018/03/21 04:23:00.000,n,82,6.84,3.6,9.36,21.2,88.1,1017.02,2.75,0,0,0,0.027847
2018/03/21 04:24:00.003,n,128,5.4,2.16,6.84,21.2,88,1017.12,2.75,0,0,0,0.02697
2018/03/21 04:25:00.000,n,152,8.28,6.48,10.440002,21.2,88.1,1017.12,2.75,0,0,0,0.029564
2018/03/21 04:26:00.000,n,141,9,8.28,10.08,21.2,88.1,1017.12,2.75,0,0,0,0.025215
2018/03/21 04:27:00.003,n,139,4.68,3.6,5.4,21.2,88.2,1017.12,2.75,0,0,0,0.021744
2018/03/21 04:28:00.009,n,140,7.56,6.12,8.64,21.2,88.1,1017.12,2.75,0,0,0,0.024338
2018/03/21 04:29:00.000,n,160,6.48,5.76,7.2,21.2,88.2,1017.12,2.75,0,0,0,0.023499
2018/03/21 04:30:00.003,n,161,8.28,7.2,8.64,21.2,88.1,1017.12,2.75,0,0,0,0.023499
2018/03/21 04:31:00.000,n,153,5.76,5.4,6.84,21.2,88.3,1017.02,2.75,0,0,0,0.026093
2018/03/21 04:32:00.000,n,133,8.64,8.28,9.36,21.2,88.2,1017.02,2.75,0,0,0,0.021744
2018/03/21 04:33:00.004,n,146,7.2,6.84,7.92,21.2,88.3,1017.02,2.75,0,0,0,0.02697
2018/03/21 04:34:00.000,n,146,3.24,2.88,3.96,21.2,88.3,1017.02,2.75,0,0,0,0.01915
2018/03/21 04:35:00.000,n,154,6.84,6.48,7.56,21.3,88.2,1017.02,2.75,0,0,0,0.023499
2018/03/21 04:36:00.004,n,139,6.84,3.6,9,21.3,88.3,1017.12,2.75,0,0,0,0.019989
2018/03/21 04:37:00.010,n,153,5.4,3.96,6.84,21.3,88.3,1017.12,2.75,0,0,0,0.022621
2018/03/21 04:38:00.000,n,143,6.84,5.76,7.92,21.3,88.3,1017.12,2.75,0,0,0,0.021744
2018/03/21 04:39:00.005,n,140,6.84,6.12,7.2,21.3,88.3,1017.12,2.75,0,0,0,0.019989
2018/03/21 04:40:00.000,n,150,4.32,1.8,5.4,21.3,88.3,1017.12,2.75,0,0,0,0.01915
2018/03/21 04:41:00.000,n,131,9.36,7.92,10.8,21.3,88.3,1017.12,2.75,0,0,0,0.023499
2018/03/21 04:42:00.005,n,156,3.6,2.88,4.32,21.3,88.3,1017.12,2.75,0,0,0,0.030441
2018/03/21 04:43:00.006,n,136,7.2,6.48,7.92,21.3,88.2,1017.12,2.75,0,0,0,0.0383
2018/03/21 04:44:00.000,n,149,6.12,5.04,7.56,21.3,88.3,1017.12,2.75,0,0,0,0.036507
2018/03/21 04:45:00.000,n,160,6.84,5.4,7.92,21.3,88.2,1017.12,2.75,0,0,0,0.030441
2018/03/21 04:46:00.006,n,162,9,7.92,10.08,21.3,88.1,1017.12,2.75,0,0,0,0.033073
2018/03/21 04:47:00.012,n,154,5.4,5.04,5.76,21.3,88.2,1017.12,2.75,0,0,0,0.033913
2018/03/21 04:48:00.001,n,160,7.56,6.48,9,21.3,88.2,1017.12,2.75,0,0,0,0.036507
2018/03/21 04:49:00.000,n,162,6.48,5.76,6.84,21.4,88.1,1017.12,2.75,0,0,0,0.031319